| time (UTC) | temp F | wind direction | speed knots | gust knots | rain 1hr in | rain 24hr in | rain mn in | humidity % | barometer mb |
| 20260507171503 | 58 | 205 | 0.9 | 6.1 | 0.00 | 0.00 | 0.00 | 63 | 1014.1 |
| 20260507171025 | 58 | 196 | 0.9 | 6.1 | 0.00 | 0.00 | 0.00 | 62 | 1014.1 |
| 20260507170525 | 58 | 192 | 0.9 | 4.3 | 0.00 | 0.00 | 0.00 | 62 | 1014.2 |
| 20260507170004 | 58 | 196 | 0.9 | 6.1 | 0.00 | 0.00 | 0.00 | 63 | 1014.2 |
| 20260507165504 | 57 | 198 | 1.7 | 6.1 | 0.00 | 0.00 | 0.00 | 62 | 1014.3 |
| 20260507165004 | 57 | 208 | 1.7 | 6.1 | 0.00 | 0.00 | 0.00 | 62 | 1014.4 |
| 20260507164503 | 57 | 207 | 2.6 | 8.7 | 0.00 | 0.00 | 0.00 | 62 | 1014.3 |
| 20260507164003 | 57 | 207 | 2.6 | 8.7 | 0.00 | 0.00 | 0.00 | 62 | 1014.3 |
| 20260507163503 | 57 | 221 | 2.6 | 6.1 | 0.00 | 0.00 | 0.00 | 62 | 1014.3 |
| 20260507163003 | 57 | 220 | 2.6 | 6.1 | 0.00 | 0.00 | 0.00 | 64 | 1014.3 |
| 20260507162503 | 57 | 213 | 1.7 | 6.1 | 0.00 | 0.00 | 0.00 | 62 | 1014.4 |
| 20260507162026 | 56 | 206 | 1.7 | 6.1 | 0.00 | 0.00 | 0.00 | 64 | 1014.3 |
| 20260507161504 | 56 | 183 | 0.9 | 6.1 | 0.00 | 0.00 | 0.00 | 64 | 1014.4 |
| 20260507161003 | 56 | 192 | 1.7 | 8.7 | 0.00 | 0.00 | 0.00 | 63 | 1014.4 |
| 20260507160504 | 56 | 193 | 1.7 | 8.7 | 0.00 | 0.00 | 0.00 | 65 | 1014.4 |
| 20260507160003 | 56 | 186 | 1.7 | 9.6 | 0.00 | 0.00 | 0.00 | 64 | 1014.4 |
| 20260507155504 | 56 | 193 | 1.7 | 9.6 | 0.00 | 0.00 | 0.00 | 64 | 1014.4 |
| 20260507155004 | 56 | 208 | 2.6 | 7.0 | 0.00 | 0.00 | 0.00 | 65 | 1014.4 |
| 20260507154503 | 55 | 210 | 1.7 | 7.0 | 0.00 | 0.00 | 0.00 | 64 | 1014.4 |
| 20260507154005 | 56 | 202 | 0.9 | 6.1 | 0.00 | 0.00 | 0.00 | 65 | 1014.5 |
| 20260507153504 | 56 | 184 | 0.9 | 6.1 | 0.00 | 0.00 | 0.00 | 64 | 1014.6 |
| 20260507153003 | 56 | 191 | 0.9 | 6.1 | 0.00 | 0.00 | 0.00 | 64 | 1014.6 |
| 20260507152504 | 56 | 216 | 0.9 | 4.3 | 0.00 | 0.00 | 0.00 | 64 | 1014.6 |
| 20260507152003 | 56 | 196 | 1.7 | 8.7 | 0.00 | 0.00 | 0.00 | 64 | 1014.6 |
| 20260507151504 | 56 | 186 | 1.7 | 8.7 | 0.00 | 0.00 | 0.00 | 63 | 1014.6 |
| 20260507151005 | 56 | 188 | 1.7 | 8.7 | 0.00 | 0.00 | 0.00 | 63 | 1014.6 |
| 20260507150503 | 56 | 180 | 2.6 | 10.4 | 0.00 | 0.00 | 0.00 | 62 | 1014.7 |
| 20260507150004 | 56 | 177 | 1.7 | 10.4 | 0.00 | 0.00 | 0.00 | 64 | 1014.7 |
| 20260507145504 | 56 | 174 | 1.7 | 10.4 | 0.00 | 0.00 | 0.00 | 63 | 1014.7 |
| 20260507145004 | 56 | 170 | 1.7 | 10.4 | 0.00 | 0.00 | 0.00 | 65 | 1014.7 |
| 20260507144503 | 56 | 188 | 2.6 | 7.0 | 0.00 | 0.00 | 0.00 | 67 | 1014.8 |
| 20260507144004 | 56 | 207 | 2.6 | 7.0 | 0.00 | 0.00 | 0.00 | 66 | 1014.8 |
| 20260507143503 | 55 | 200 | 2.6 | 7.0 | 0.00 | 0.00 | 0.00 | 67 | 1014.8 |
| 20260507143025 | 55 | 184 | 2.6 | 8.7 | 0.00 | 0.00 | 0.00 | 67 | 1014.9 |
| 20260507142504 | 54 | 194 | 3.5 | 8.7 | 0.00 | 0.00 | 0.00 | 67 | 1014.9 |
| 20260507142003 | 54 | 201 | 3.5 | 12.2 | 0.00 | 0.00 | 0.00 | 66 | 1015.0 |
| 20260507141503 | 54 | 197 | 2.6 | 12.2 | 0.00 | 0.00 | 0.00 | 66 | 1015.0 |
| 20260507141003 | 55 | 190 | 2.6 | 9.6 | 0.00 | 0.00 | 0.00 | 65 | 1015.0 |
| 20260507140503 | 55 | 152 | 2.6 | 9.6 | 0.00 | 0.00 | 0.00 | 66 | 1015.0 |
| 20260507140003 | 55 | 172 | 3.5 | 9.6 | 0.00 | 0.00 | 0.00 | 66 | 1015.0 |
| 20260507135503 | 55 | 204 | 3.5 | 9.6 | 0.00 | 0.00 | 0.00 | 66 | 1015.0 |
| 20260507135005 | 55 | 207 | 3.5 | 9.6 | 0.00 | 0.00 | 0.00 | 65 | 1015.0 |
| 20260507134503 | 55 | 203 | 4.3 | 9.6 | 0.00 | 0.00 | 0.00 | 64 | 1015.1 |
| 20260507134003 | 55 | 200 | 4.3 | 10.4 | 0.00 | 0.00 | 0.00 | 65 | 1015.2 |
| 20260507133504 | 55 | 200 | 4.3 | 12.2 | 0.00 | 0.00 | 0.00 | 63 | 1015.2 |
| 20260507133025 | 55 | 196 | 3.5 | 12.2 | 0.00 | 0.00 | 0.00 | 64 | 1015.2 |
| 20260507132505 | 55 | 189 | 3.5 | 9.6 | 0.00 | 0.00 | 0.00 | 64 | 1015.2 |
| 20260507132004 | 56 | 180 | 3.5 | 12.2 | 0.00 | 0.00 | 0.00 | 65 | 1015.2 |
| 20260507131524 | 56 | 192 | 3.5 | 12.2 | 0.00 | 0.00 | 0.00 | 64 | 1015.3 |
| 20260507131026 | 56 | 186 | 3.5 | 12.2 | 0.00 | 0.00 | 0.00 | 63 | 1015.3 |
| 20260507130503 | 56 | 179 | 3.5 | 9.6 | 0.00 | 0.00 | 0.00 | 63 | 1015.2 |
| 20260507130003 | 56 | 182 | 3.5 | 13.9 | 0.00 | 0.00 | 0.00 | 63 | 1015.2 |
| 20260507125525 | 56 | 179 | 3.5 | 13.9 | 0.00 | 0.00 | 0.00 | 62 | 1015.1 |
| 20260507125003 | 56 | 167 | 4.3 | 12.2 | 0.00 | 0.00 | 0.00 | 63 | 1015.2 |
| 20260507124524 | 56 | 173 | 4.3 | 13.0 | 0.00 | 0.00 | 0.00 | 63 | 1015.2 |
| 20260507124003 | 56 | 200 | 4.3 | 18.2 | 0.00 | 0.00 | 0.00 | 62 | 1015.2 |
| 20260507123503 | 56 | 199 | 4.3 | 18.2 | 0.00 | 0.00 | 0.00 | 62 | 1015.2 |
| 20260507123004 | 57 | 191 | 3.5 | 12.2 | 0.00 | 0.00 | 0.00 | 61 | 1015.2 |
| 20260507122504 | 57 | 189 | 3.5 | 13.0 | 0.00 | 0.00 | 0.00 | 61 | 1015.1 |
| 20260507122004 | 57 | 195 | 4.3 | 13.0 | 0.00 | 0.00 | 0.00 | 62 | 1015.2 |
| 20260507121504 | 57 | 203 | 4.3 | 12.2 | 0.00 | 0.00 | 0.00 | 61 | 1015.2 |
| 20260507121024 | 57 | 208 | 4.3 | 12.2 | 0.00 | 0.00 | 0.00 | 60 | 1015.1 |
| 20260507120505 | 58 | 202 | 3.5 | 12.2 | 0.00 | 0.00 | 0.00 | 60 | 1015.2 |
| 20260507120004 | 58 | 155 | 3.5 | 9.6 | 0.00 | 0.00 | 0.00 | 60 | 1015.2 |
| 20260507115505 | 58 | 179 | 4.3 | 10.4 | 0.00 | 0.00 | 0.00 | 62 | 1015.3 |
| 20260507115003 | 57 | 209 | 4.3 | 13.0 | 0.00 | 0.00 | 0.00 | 61 | 1015.3 |
| 20260507114525 | 57 | 217 | 4.3 | 13.0 | 0.00 | 0.00 | 0.00 | 63 | 1015.4 |
| 20260507114005 | 56 | 212 | 3.5 | 10.4 | 0.00 | 0.00 | 0.00 | 61 | 1015.3 |
| 20260507113504 | 57 | 189 | 4.3 | 13.0 | 0.00 | 0.00 | 0.00 | 62 | 1015.4 |
| 20260507113024 | 56 | 193 | 5.2 | 13.0 | 0.00 | 0.00 | 0.00 | 61 | 1015.4 |
| 20260507112503 | 56 | 210 | 6.1 | 12.2 | 0.00 | 0.00 | 0.00 | 61 | 1015.4 |
| 20260507112004 | 56 | 218 | 6.1 | 13.0 | 0.00 | 0.00 | 0.00 | 61 | 1015.4 |
| 20260507111504 | 56 | 210 | 5.2 | 13.0 | 0.00 | 0.00 | 0.00 | 62 | 1015.4 |
| 20260507111003 | 55 | 208 | 4.3 | 13.0 | 0.00 | 0.00 | 0.00 | 64 | 1015.4 |
| 20260507110504 | 55 | 212 | 4.3 | 13.0 | 0.00 | 0.00 | 0.00 | 63 | 1015.4 |
| 20260507110005 | 55 | 213 | 4.3 | 18.2 | 0.00 | 0.00 | 0.00 | 65 | 1015.3 |
| 20260507105504 | 54 | 202 | 4.3 | 18.2 | 0.00 | 0.00 | 0.00 | 68 | 1015.4 |
| 20260507105003 | 54 | 202 | 4.3 | 13.9 | 0.00 | 0.00 | 0.00 | 68 | 1015.5 |
| 20260507104504 | 53 | 198 | 3.5 | 12.2 | 0.00 | 0.00 | 0.00 | 69 | 1015.5 |
| 20260507104024 | 52 | 199 | 3.5 | 10.4 | 0.00 | 0.00 | 0.00 | 71 | 1015.6 |
| 20260507103524 | 52 | 201 | 2.6 | 10.4 | 0.00 | 0.00 | 0.00 | 72 | 1015.6 |
| 20260507103025 | 52 | 181 | 2.6 | 9.6 | 0.00 | 0.00 | 0.00 | 74 | 1015.7 |
| 20260507102504 | 51 | 195 | 2.6 | 9.6 | 0.00 | 0.00 | 0.00 | 75 | 1015.7 |
| 20260507102006 | 51 | 207 | 2.6 | 8.7 | 0.00 | 0.00 | 0.00 | 75 | 1015.7 |
| 20260507101506 | 50 | 193 | 2.6 | 8.7 | 0.00 | 0.00 | 0.00 | 75 | 1015.7 |
| 20260507101025 | 50 | 185 | 3.5 | 8.7 | 0.00 | 0.00 | 0.00 | 74 | 1015.7 |
| 20260507100503 | 50 | 190 | 2.6 | 8.7 | 0.00 | 0.00 | 0.00 | 74 | 1015.7 |
| 20260507100004 | 51 | 189 | 2.6 | 9.6 | 0.00 | 0.00 | 0.00 | 74 | 1015.7 |
| 20260507095503 | 51 | 192 | 2.6 | 9.6 | 0.00 | 0.00 | 0.00 | 73 | 1015.8 |
| 20260507095003 | 51 | 203 | 2.6 | 8.7 | 0.00 | 0.00 | 0.00 | 74 | 1015.7 |
| 20260507094504 | 51 | 200 | 1.7 | 8.7 | 0.00 | 0.00 | 0.00 | 74 | 1015.7 |
| 20260507094004 | 51 | 175 | 0.9 | 8.7 | 0.00 | 0.00 | 0.00 | 75 | 1015.7 |
| 20260507093525 | 51 | 159 | 0.9 | 8.7 | 0.00 | 0.00 | 0.00 | 75 | 1015.8 |
| 20260507093005 | 50 | 175 | 0.9 | 7.0 | 0.00 | 0.00 | 0.00 | 76 | 1015.8 |
| 20260507092524 | 50 | 180 | 0.9 | 7.0 | 0.00 | 0.00 | 0.00 | 76 | 1015.8 |
| 20260507092003 | 50 | 178 | 0.9 | 9.6 | 0.00 | 0.00 | 0.00 | 76 | 1015.8 |
| 20260507091503 | 49 | 162 | 0.9 | 9.6 | 0.00 | 0.00 | 0.00 | 77 | 1015.8 |
| 20260507091003 | 49 | 165 | 0.9 | 9.6 | 0.00 | 0.00 | 0.00 | 77 | 1015.8 |
| 20260507090504 | 49 | 163 | 0.9 | 9.6 | 0.00 | 0.00 | 0.00 | 76 | 1015.8 |
| 20260507090004 | 49 | 156 | 0.9 | 7.0 | 0.00 | 0.00 | 0.00 | 77 | 1015.8 |
| 20260507085504 | 49 | 170 | 1.7 | 7.0 | 0.00 | 0.00 | 0.00 | 76 | 1015.8 |
| 20260507085004 | 49 | 163 | 1.7 | 10.4 | 0.00 | 0.00 | 0.00 | 76 | 1015.7 |
| 20260507084504 | 49 | 139 | 1.7 | 10.4 | 0.00 | 0.00 | 0.00 | 76 | 1015.7 |
| 20260507084003 | 49 | 141 | 1.7 | 13.0 | 0.00 | 0.00 | 0.00 | 76 | 1015.8 |
| 20260507083504 | 50 | 158 | 1.7 | 13.0 | 0.00 | 0.00 | 0.00 | 76 | 1015.8 |
| 20260507083004 | 50 | 160 | 2.6 | 9.6 | 0.00 | 0.00 | 0.00 | 77 | 1015.8 |
| 20260507082503 | 50 | 148 | 1.7 | 9.6 | 0.00 | 0.00 | 0.00 | 77 | 1015.8 |
| 20260507082003 | 49 | 149 | 1.7 | 8.7 | 0.00 | 0.00 | 0.00 | 77 | 1015.9 |
| 20260507081503 | 49 | 149 | 0.9 | 8.7 | 0.00 | 0.00 | 0.00 | 77 | 1015.8 |
| 20260507081005 | 49 | 149 | 1.7 | 8.7 | 0.00 | 0.00 | 0.00 | 78 | 1015.9 |
| 20260507080503 | 48 | 188 | 1.7 | 8.7 | 0.00 | 0.00 | 0.00 | 78 | 1015.9 |
| 20260507080005 | 48 | 204 | 2.6 | 8.7 | 0.00 | 0.00 | 0.00 | 79 | 1015.9 |
| 20260507075505 | 48 | 193 | 2.6 | 8.7 | 0.00 | 0.00 | 0.00 | 79 | 1015.9 |
| 20260507075005 | 48 | 176 | 1.7 | 8.7 | 0.00 | 0.00 | 0.00 | 79 | 1015.9 |
| 20260507074504 | 48 | 177 | 1.7 | 8.7 | 0.00 | 0.00 | 0.00 | 79 | 1015.8 |
| 20260507074003 | 47 | 181 | 0.9 | 8.7 | 0.00 | 0.00 | 0.00 | 80 | 1015.8 |
| 20260507073504 | 47 | 182 | 0.9 | 7.0 | 0.00 | 0.00 | 0.00 | 80 | 1015.8 |
| 20260507073025 | 47 | 176 | 0.9 | 7.0 | 0.00 | 0.00 | 0.00 | 82 | 1015.8 |
| 20260507072503 | 46 | 163 | 0.9 | 7.0 | 0.00 | 0.00 | 0.00 | 82 | 1015.8 |
| 20260507072025 | 46 | 166 | 0.9 | 6.1 | 0.00 | 0.00 | 0.00 | 83 | 1015.9 |
| 20260507071504 | 46 | 163 | 0.9 | 6.1 | 0.00 | 0.00 | 0.00 | 84 | 1015.8 |
| 20260507071004 | 45 | 157 | 0.9 | 6.1 | 0.00 | 0.00 | 0.00 | 85 | 1015.8 |
| 20260507070503 | 45 | 172 | 0.0 | 6.1 | 0.00 | 0.00 | 0.00 | 86 | 1015.8 |
| 20260507070006 | 44 | 189 | 0.0 | 3.5 | 0.00 | 0.00 | 0.00 | 87 | 1015.9 |
| 20260507065504 | 44 | 191 | 0.9 | 2.6 | 0.00 | 0.00 | 0.00 | 88 | 1015.9 |
| 20260507065004 | 44 | 186 | 0.9 | 2.6 | 0.00 | 0.00 | 0.00 | 88 | 1015.9 |
| 20260507064502 | 43 | 0 | 2.6 | 2.6 | 0.00 | 0.00 | 0.00 | 89 | 1015.9 |
| 20260507064003 | 43 | 0 | 2.6 | 2.6 | 0.00 | 0.00 | 0.00 | 90 | 1015.9 |
| 20260507063503 | 42 | 0 | 0.9 | 0.9 | 0.00 | 0.00 | 0.00 | 91 | 1015.9 |
| 20260507063003 | 41 | 0 | 0.9 | 0.9 | 0.00 | 0.00 | 0.00 | 91 | 1015.8 |
| 20260507062503 | 41 | 0 | 0.0 | 0.0 | 0.00 | 0.00 | 0.00 | 90 | 1015.8 |
| 20260507062002 | 41 | 0 | 0.0 | 0.0 | 0.00 | 0.00 | 0.00 | 91 | 1015.8 |
| 20260507061502 | 40 | 0 | 0.0 | 0.0 | 0.00 | 0.00 | 0.00 | 91 | 1015.8 |
| 20260507061002 | 40 | 0 | 0.0 | 0.0 | 0.00 | 0.00 | 0.00 | 91 | 1015.7 |
| 20260507060523 | 40 | 0 | 0.9 | 0.9 | 0.00 | 0.00 | 0.00 | 91 | 1015.7 |
| 20260507060003 | 39 | 0 | 0.9 | 0.9 | 0.00 | 0.00 | 0.00 | 91 | 1015.7 |
| 20260507055502 | 39 | 0 | 0.9 | 0.9 | 0.00 | 0.00 | 0.00 | 91 | 1015.7 |
| 20260507055002 | 39 | 0 | 0.9 | 0.9 | 0.00 | 0.00 | 0.00 | 92 | 1015.6 |
| 20260507054503 | 38 | 0 | 0.0 | 0.0 | 0.00 | 0.00 | 0.00 | 91 | 1015.6 |
| 20260507054002 | 38 | 0 | 0.0 | 0.0 | 0.00 | 0.00 | 0.00 | 91 | 1015.6 |
| 20260507053503 | 37 | 0 | 0.0 | 0.0 | 0.00 | 0.00 | 0.00 | 91 | 1015.6 |
| 20260507053004 | 37 | 0 | 0.0 | 0.0 | 0.00 | 0.00 | 0.00 | 91 | 1015.5 |
| 20260507052503 | 36 | 0 | 0.0 | 0.0 | 0.00 | 0.00 | 0.00 | 91 | 1015.5 |
| 20260507052003 | 36 | 0 | 0.0 | 0.0 | 0.00 | 0.00 | 0.00 | 91 | 1015.6 |
| 20260507051502 | 36 | 0 | 0.0 | 0.0 | 0.00 | 0.00 | 0.00 | 91 | 1015.6 |
| 20260507051002 | 35 | 0 | 0.0 | 0.0 | 0.00 | 0.00 | 0.00 | 90 | 1015.6 |
| 20260507050502 | 35 | 0 | 0.0 | 0.0 | 0.00 | 0.00 | 0.00 | 91 | 1015.6 |
| 20260507050003 | 35 | 0 | 0.0 | 0.0 | 0.00 | 0.00 | 0.00 | 90 | 1015.5 |
| 20260507045524 | 34 | 0 | 0.0 | 0.0 | 0.00 | 0.00 | 0.00 | 90 | 1015.6 |
| 20260507045002 | 34 | 0 | 0.0 | 0.0 | 0.00 | 0.00 | 0.00 | 89 | 1015.6 |
| 20260507044502 | 34 | 0 | 0.0 | 0.0 | 0.00 | 0.00 | 0.00 | 89 | 1015.6 |
| 20260507044002 | 34 | 0 | 0.0 | 0.0 | 0.00 | 0.00 | 0.00 | 89 | 1015.6 |
| 20260507043524 | 34 | 0 | 0.0 | 0.0 | 0.00 | 0.00 | 0.00 | 89 | 1015.7 |
| 20260507043002 | 34 | 0 | 0.0 | 0.0 | 0.00 | 0.00 | 0.00 | 89 | 1015.6 |
| 20260507042502 | 34 | 0 | 0.0 | 0.0 | 0.00 | 0.00 | 0.00 | 89 | 1015.6 |
| 20260507042002 | 34 | 0 | 0.0 | 0.0 | 0.00 | 0.00 | 0.00 | 89 | 1015.5 |
| 20260507041523 | 34 | 0 | 0.0 | 0.0 | 0.00 | 0.00 | 0.00 | 89 | 1015.6 |
| 20260507041003 | 34 | 0 | 0.0 | 0.0 | 0.00 | 0.00 | 0.00 | 89 | 1015.6 |
| 20260507040503 | 34 | 0 | 0.0 | 0.0 | 0.00 | 0.00 | 0.00 | 89 | 1015.6 |
| 20260507040002 | 34 | 0 | 0.0 | 0.0 | 0.00 | 0.00 | 0.00 | 89 | 1015.6 |
| 20260507035503 | 34 | 0 | 0.0 | 0.0 | 0.00 | 0.00 | 0.00 | 89 | 1015.7 |
| 20260507035024 | 34 | 0 | 0.0 | 0.0 | 0.00 | 0.00 | 0.00 | 89 | 1015.6 |
| 20260507034503 | 34 | 0 | 0.0 | 0.0 | 0.00 | 0.00 | 0.00 | 89 | 1015.6 |
| 20260507034003 | 34 | 0 | 0.0 | 0.0 | 0.00 | 0.00 | 0.00 | 88 | 1015.7 |
| 20260507033503 | 34 | 0 | 0.0 | 0.0 | 0.00 | 0.00 | 0.00 | 88 | 1015.7 |
| 20260507033003 | 34 | 0 | 0.0 | 0.0 | 0.00 | 0.00 | 0.00 | 88 | 1015.7 |
| 20260507032503 | 34 | 0 | 0.0 | 0.0 | 0.00 | 0.00 | 0.00 | 88 | 1015.8 |
| 20260507032003 | 34 | 0 | 0.0 | 0.0 | 0.00 | 0.00 | 0.00 | 88 | 1015.8 |
| 20260507031502 | 34 | 0 | 0.0 | 0.0 | 0.00 | 0.00 | 0.00 | 88 | 1015.7 |
| 20260507031002 | 34 | 0 | 0.0 | 0.0 | 0.00 | 0.00 | 0.00 | 88 | 1015.7 |
| 20260507030502 | 34 | 0 | 0.0 | 0.0 | 0.00 | 0.00 | 0.00 | 88 | 1015.7 |
| 20260507030024 | 34 | 0 | 0.0 | 0.0 | 0.00 | 0.00 | 0.00 | 88 | 1015.7 |
| 20260507025502 | 34 | 0 | 0.0 | 0.0 | 0.00 | 0.00 | 0.00 | 88 | 1015.7 |
| 20260507025002 | 34 | 0 | 0.0 | 0.0 | 0.00 | 0.00 | 0.00 | 88 | 1015.7 |
| 20260507024502 | 34 | 0 | 0.0 | 0.0 | 0.00 | 0.00 | 0.00 | 88 | 1015.7 |
| 20260507024003 | 34 | 0 | 0.0 | 0.0 | 0.00 | 0.00 | 0.00 | 88 | 1015.7 |
| 20260507023502 | 34 | 0 | 0.0 | 0.0 | 0.00 | 0.00 | 0.00 | 88 | 1015.7 |
| 20260507023002 | 34 | 0 | 0.0 | 0.0 | 0.00 | 0.00 | 0.00 | 88 | 1015.7 |
| 20260507022502 | 34 | 0 | 0.0 | 0.0 | 0.00 | 0.00 | 0.00 | 88 | 1015.6 |
| 20260507022002 | 34 | 0 | 0.0 | 0.0 | 0.00 | 0.00 | 0.00 | 88 | 1015.7 |
| 20260507021503 | 34 | 0 | 0.9 | 0.9 | 0.00 | 0.00 | 0.00 | 87 | 1015.7 |
| 20260507021002 | 34 | 0 | 0.9 | 0.9 | 0.00 | 0.00 | 0.00 | 87 | 1015.7 |
| 20260507020502 | 34 | 0 | 0.9 | 0.9 | 0.00 | 0.00 | 0.00 | 87 | 1015.7 |
| 20260507020023 | 34 | 0 | 0.9 | 0.9 | 0.00 | 0.00 | 0.00 | 87 | 1015.7 |
| 20260507015502 | 35 | 0 | 0.9 | 0.9 | 0.00 | 0.00 | 0.00 | 87 | 1015.7 |
| 20260507015004 | 35 | 0 | 0.9 | 0.9 | 0.00 | 0.00 | 0.00 | 87 | 1015.8 |
| 20260507014502 | 35 | 0 | 0.9 | 0.9 | 0.00 | 0.00 | 0.00 | 87 | 1015.8 |
| 20260507014002 | 34 | 0 | 0.9 | 0.9 | 0.00 | 0.00 | 0.00 | 86 | 1015.8 |
| 20260507013502 | 35 | 0 | 0.0 | 0.0 | 0.00 | 0.00 | 0.00 | 86 | 1015.9 |
| 20260507013024 | 35 | 0 | 0.0 | 0.0 | 0.00 | 0.00 | 0.00 | 86 | 1015.9 |
| 20260507012504 | 35 | 0 | 0.0 | 0.0 | 0.00 | 0.00 | 0.00 | 86 | 1015.8 |
| 20260507012002 | 35 | 0 | 0.0 | 0.0 | 0.00 | 0.00 | 0.00 | 86 | 1015.8 |
| 20260507011502 | 35 | 0 | 0.0 | 0.0 | 0.00 | 0.00 | 0.00 | 86 | 1015.9 |
| 20260507011024 | 35 | 0 | 0.0 | 0.0 | 0.00 | 0.00 | 0.00 | 86 | 1015.9 |
| 20260507010503 | 35 | 0 | 0.0 | 0.0 | 0.00 | 0.00 | 0.00 | 86 | 1015.9 |
| 20260507010002 | 35 | 0 | 0.0 | 0.0 | 0.00 | 0.00 | 0.00 | 86 | 1015.9 |
| 20260507005524 | 35 | 0 | 0.0 | 0.0 | 0.00 | 0.00 | 0.00 | 86 | 1015.9 |
| 20260507005003 | 35 | 0 | 0.0 | 0.0 | 0.00 | 0.00 | 0.00 | 86 | 1015.9 |
| 20260507004523 | 35 | 0 | 0.0 | 0.0 | 0.00 | 0.00 | 0.00 | 86 | 1015.9 |
| 20260507004003 | 35 | 0 | 0.0 | 0.0 | 0.00 | 0.00 | 0.00 | 85 | 1015.9 |
| 20260507003502 | 35 | 0 | 0.0 | 0.0 | 0.00 | 0.00 | 0.00 | 85 | 1015.9 |
| 20260507003024 | 35 | 0 | 0.0 | 0.0 | 0.00 | 0.00 | 0.00 | 85 | 1015.9 |
| 20260507002503 | 35 | 0 | 0.0 | 0.0 | 0.00 | 0.00 | 0.00 | 84 | 1015.9 |
| 20260507002002 | 35 | 0 | 0.0 | 0.0 | 0.00 | 0.00 | 0.00 | 84 | 1015.9 |
| 20260507001502 | 35 | 0 | 0.0 | 0.0 | 0.00 | 0.00 | 0.00 | 84 | 1015.9 |
| 20260507001003 | 36 | 0 | 0.0 | 0.0 | 0.00 | 0.00 | 0.00 | 84 | 1016.0 |
| 20260507000503 | 36 | 0 | 0.0 | 0.0 | 0.00 | 0.00 | 0.00 | 84 | 1016.0 |
| 20260507000002 | 36 | 0 | 0.0 | 0.0 | 0.00 | 0.00 | 0.00 | 84 | 1015.9 |
| 20260506235503 | 36 | 0 | 0.0 | 0.0 | 0.00 | 0.00 | 0.00 | 84 | 1015.9 |
| 20260506235002 | 36 | 0 | 0.0 | 0.0 | 0.00 | 0.00 | 0.00 | 84 | 1016.0 |
| 20260506234523 | 36 | 0 | 0.0 | 0.0 | 0.00 | 0.00 | 0.00 | 84 | 1016.0 |
| 20260506234002 | 36 | 0 | 0.0 | 0.0 | 0.00 | 0.00 | 0.00 | 84 | 1016.1 |
| 20260506233502 | 36 | 0 | 0.0 | 0.0 | 0.00 | 0.00 | 0.00 | 84 | 1016.0 |
| 20260506233023 | 36 | 0 | 0.0 | 0.0 | 0.00 | 0.00 | 0.00 | 83 | 1016.1 |
| 20260506232503 | 37 | 0 | 0.0 | 0.0 | 0.00 | 0.00 | 0.00 | 83 | 1016.1 |
| 20260506232002 | 37 | 0 | 0.0 | 0.0 | 0.00 | 0.00 | 0.00 | 84 | 1016.1 |
| 20260506231523 | 37 | 0 | 0.0 | 0.0 | 0.00 | 0.00 | 0.00 | 83 | 1016.1 |
| 20260506231002 | 37 | 0 | 0.0 | 0.0 | 0.00 | 0.00 | 0.00 | 83 | 1016.1 |
| 20260506230502 | 37 | 0 | 0.9 | 0.9 | 0.00 | 0.00 | 0.00 | 83 | 1016.1 |
| 20260506230003 | 37 | 0 | 0.9 | 0.9 | 0.00 | 0.00 | 0.00 | 83 | 1016.1 |
| 20260506225502 | 38 | 0 | 0.9 | 0.9 | 0.00 | 0.00 | 0.00 | 83 | 1016.1 |
| 20260506225002 | 38 | 0 | 0.9 | 0.9 | 0.00 | 0.00 | 0.00 | 82 | 1016.1 |
| 20260506224503 | 38 | 0 | 0.9 | 0.9 | 0.00 | 0.00 | 0.00 | 82 | 1016.1 |
| 20260506224023 | 38 | 0 | 0.9 | 0.9 | 0.00 | 0.00 | 0.00 | 82 | 1016.1 |
| 20260506223502 | 38 | 0 | 0.9 | 0.9 | 0.00 | 0.00 | 0.00 | 81 | 1016.1 |
| 20260506223002 | 38 | 0 | 0.9 | 0.9 | 0.00 | 0.00 | 0.00 | 81 | 1016.1 |
| 20260506222503 | 38 | 0 | 0.9 | 0.9 | 0.00 | 0.00 | 0.00 | 80 | 1016.2 |
| 20260506222003 | 38 | 0 | 0.9 | 0.9 | 0.00 | 0.00 | 0.00 | 80 | 1016.1 |
| 20260506221504 | 39 | 0 | 0.0 | 0.0 | 0.00 | 0.00 | 0.00 | 79 | 1016.1 |
| 20260506221002 | 39 | 0 | 0.9 | 0.9 | 0.00 | 0.00 | 0.00 | 79 | 1016.1 |
| 20260506220524 | 39 | 0 | 0.9 | 0.9 | 0.00 | 0.00 | 0.00 | 79 | 1016.1 |
| 20260506220003 | 39 | 0 | 0.9 | 0.9 | 0.00 | 0.00 | 0.00 | 79 | 1016.1 |
| 20260506215502 | 39 | 0 | 0.9 | 0.9 | 0.00 | 0.00 | 0.00 | 79 | 1016.1 |
| 20260506215002 | 40 | 0 | 0.0 | 0.0 | 0.00 | 0.00 | 0.00 | 78 | 1016.1 |
| 20260506214503 | 40 | 0 | 0.0 | 0.0 | 0.00 | 0.00 | 0.00 | 78 | 1016.1 |
| 20260506214003 | 40 | 0 | 0.9 | 0.9 | 0.00 | 0.00 | 0.00 | 77 | 1016.1 |
| 20260506213502 | 40 | 0 | 0.9 | 0.9 | 0.00 | 0.00 | 0.00 | 76 | 1016.1 |
| 20260506213023 | 40 | 0 | 0.9 | 0.9 | 0.00 | 0.00 | 0.00 | 76 | 1016.1 |
| 20260506212502 | 41 | 0 | 0.9 | 0.9 | 0.00 | 0.00 | 0.00 | 76 | 1016.1 |
| 20260506212002 | 41 | 0 | 0.9 | 0.9 | 0.00 | 0.00 | 0.00 | 76 | 1016.1 |
| 20260506211502 | 41 | 0 | 0.9 | 0.9 | 0.00 | 0.00 | 0.00 | 76 | 1016.1 |
| 20260506211002 | 41 | 0 | 0.9 | 0.9 | 0.00 | 0.00 | 0.00 | 76 | 1016.1 |
| 20260506210503 | 41 | 0 | 0.9 | 0.9 | 0.00 | 0.00 | 0.00 | 75 | 1016.0 |
| 20260506210002 | 42 | 0 | 0.0 | 0.0 | 0.00 | 0.00 | 0.00 | 75 | 1016.0 |
| 20260506205503 | 42 | 0 | 0.0 | 0.0 | 0.00 | 0.00 | 0.00 | 74 | 1016.0 |
| 20260506205003 | 42 | 0 | 0.9 | 0.9 | 0.00 | 0.00 | 0.00 | 74 | 1016.0 |
| 20260506204503 | 43 | 0 | 0.9 | 0.9 | 0.00 | 0.00 | 0.00 | 74 | 1016.0 |
| 20260506204003 | 43 | 0 | 0.0 | 0.0 | 0.00 | 0.00 | 0.00 | 74 | 1016.0 |
| 20260506203524 | 43 | 0 | 0.0 | 0.0 | 0.00 | 0.00 | 0.00 | 73 | 1016.1 |
| 20260506203002 | 43 | 0 | 0.9 | 0.9 | 0.00 | 0.00 | 0.00 | 73 | 1016.1 |
| 20260506202502 | 44 | 0 | 0.9 | 0.9 | 0.00 | 0.00 | 0.00 | 73 | 1016.1 |
| 20260506202002 | 44 | 0 | 0.9 | 0.9 | 0.00 | 0.00 | 0.00 | 72 | 1016.0 |
| 20260506201503 | 44 | 0 | 0.9 | 0.9 | 0.00 | 0.00 | 0.00 | 72 | 1016.0 |
| 20260506201003 | 44 | 0 | 0.9 | 0.9 | 0.00 | 0.00 | 0.00 | 71 | 1016.0 |
| 20260506200523 | 45 | 0 | 0.9 | 0.9 | 0.00 | 0.00 | 0.00 | 71 | 1016.0 |
| 20260506200002 | 45 | 0 | 0.9 | 0.9 | 0.00 | 0.00 | 0.00 | 70 | 1016.0 |
| 20260506195524 | 45 | 0 | 0.9 | 0.9 | 0.00 | 0.00 | 0.00 | 70 | 1015.9 |
| 20260506195002 | 46 | 0 | 0.0 | 0.9 | 0.00 | 0.00 | 0.00 | 69 | 1015.9 |
| 20260506194503 | 46 | 0 | 0.0 | 2.6 | 0.00 | 0.00 | 0.00 | 69 | 1015.8 |
| 20260506194002 | 46 | 0 | 0.0 | 2.6 | 0.00 | 0.00 | 0.00 | 69 | 1015.8 |
| 20260506193504 | 46 | 100 | 0.0 | 2.6 | 0.00 | 0.00 | 0.00 | 68 | 1015.8 |
| 20260506193004 | 46 | 100 | 0.0 | 2.6 | 0.00 | 0.00 | 0.00 | 68 | 1015.7 |
| 20260506192503 | 47 | 99 | 0.9 | 2.6 | 0.00 | 0.00 | 0.00 | 67 | 1015.7 |
| 20260506192002 | 47 | 99 | 0.9 | 4.3 | 0.00 | 0.00 | 0.00 | 66 | 1015.7 |
| 20260506191004 | 47 | 113 | 0.9 | 3.5 | 0.00 | 0.00 | 0.00 | 65 | 1015.7 |
| 20260506190523 | 48 | 113 | 0.9 | 3.5 | 0.00 | 0.00 | 0.00 | 65 | 1015.7 |
| 20260506190002 | 48 | 99 | 0.9 | 3.5 | 0.00 | 0.00 | 0.00 | 64 | 1015.7 |
| 20260506185502 | 48 | 94 | 0.9 | 8.7 | 0.00 | 0.00 | 0.00 | 64 | 1015.7 |
| 20260506185002 | 48 | 97 | 0.9 | 8.7 | 0.00 | 0.00 | 0.00 | 63 | 1015.6 |
| 20260506184523 | 48 | 99 | 0.9 | 2.6 | 0.00 | 0.00 | 0.00 | 63 | 1015.6 |
| 20260506184002 | 48 | 110 | 0.9 | 7.0 | 0.00 | 0.00 | 0.00 | 62 | 1015.5 |
| 20260506183503 | 48 | 110 | 0.9 | 7.0 | 0.00 | 0.00 | 0.00 | 62 | 1015.5 |
| 20260506183002 | 48 | 106 | 0.9 | 7.0 | 0.00 | 0.00 | 0.00 | 62 | 1015.5 |
| 20260506182503 | 49 | 106 | 0.9 | 7.0 | 0.00 | 0.00 | 0.00 | 62 | 1015.6 |
| 20260506182002 | 49 | 102 | 0.9 | 7.0 | 0.00 | 0.00 | 0.00 | 63 | 1015.5 |
| 20260506181503 | 49 | 105 | 0.9 | 3.5 | 0.00 | 0.00 | 0.00 | 62 | 1015.5 |
| 20260506181003 | 49 | 123 | 1.7 | 7.0 | 0.00 | 0.00 | 0.00 | 62 | 1015.5 |
| 20260506180523 | 49 | 131 | 1.7 | 7.0 | 0.00 | 0.00 | 0.00 | 60 | 1015.5 |